This demonstration page uses our WeatherBlox Daily Observations layout. Learn more.

Left ArrowRight Arrow

Hourly Observations for January 31, 2022

Temp ( °F °C ) Dew Point ( °F °C ) Humidity (%) Winds ( mph kmh ) Pressure ( in mb ) Visibility ( mi km ) Precip ( " mm )
12:53 am 00:53 Clear 45 7.2 39 3.9 80 80 SE 8 13 29.95 1014 10 16 0.00 0.00
1:53 am 01:53 Clear 42 5.6 38 3.3 85 85 W 6 9 29.94 1014 10 16 0.00 0.00
2:53 am 02:53 Clear 42 5.6 37 2.8 82 82 SW 5 7 29.92 1013 10 16 0.00 0.00
3:53 am 03:53 Clear 37 2.8 35 1.7 93 93 NNE 7 11 29.91 1013 10 16 0.00 0.00
4:53 am 04:53 Clear 36 2.2 34 1.1 93 93 Calm 29.90 1013 10 16 0.00 0.00
5:53 am 05:53 Mostly Cloudy 34 1.1 32 0 92 92 NW 8 13 29.90 1013 10 16 0.00 0.00
6:53 am 06:53 Clear 34 1.1 31 -0.6 89 89 N 6 9 29.91 1013 10 16 0.00 0.00
7:53 am 07:53 Partly Cloudy 33 0.6 32 0 96 96 N 5 7 29.94 1014 10 16 0.00 0.00
8:53 am 08:53 Sunny 38 3.3 35 1.7 89 89 Calm 29.93 1014 10 16 0.00 0.00
9:53 am 09:53 Sunny 44 6.7 29 -1.7 55 55 NNW 7 11 29.95 1014 10 16 0.00 0.00
10:53 am 10:53 Sunny 51 10.6 31 -0.6 46 46 Calm 29.93 1014 10 16 0.00 0.00
11:53 am 11:53 Sunny 57 13.9 30 -1.1 36 36 WNW 7 11 29.91 1013 10 16 0.00 0.00
12:53 pm 12:53 Sunny 61 16.1 28 -2.2 29 29 N 7 11 29.87 1012 10 16 0.00 0.00
1:53 pm 13:53 Sunny 63 17.2 27 -2.8 26 26 WSW 9 15 29.84 1011 10 16 0.00 0.00
2:53 pm 14:53 Sunny 63 17.2 27 -2.8 26 26 VRB 5 7 29.82 1010 10 16 0.00 0.00
3:53 pm 15:53 Sunny 64 17.8 26 -3.3 24 24 W 10 17 29.81 1009 10 16 0.00 0.00
4:53 pm 16:53 Sunny 65 18.3 26 -3.3 23 23 W 9 15 29.79 1009 10 16 0.00 0.00
5:53 pm 17:53 Sunny 63 17.2 27 -2.8 26 26 SSE 8 13 29.78 1009 10 16 0.00 0.00
6:53 pm 18:53 Clear 58 14.4 26 -3.3 29 29 SE 6 9 29.81 1009 10 16 0.00 0.00
7:53 pm 19:53 Clear 50 10 26 -3.3 39 39 SE 8 13 29.83 1010 10 16 0.00 0.00
8:53 pm 20:53 Clear 47 8.3 26 -3.3 44 44 SSE 9 15 29.84 1010 10 16 0.00 0.00
9:53 pm 21:53 Clear 47 8.3 25 -3.9 42 42 S 10 17 29.83 1010 10 16 0.00 0.00
10:53 pm 22:53 Clear 44 6.7 25 -3.9 47 47 S 5 7 29.81 1010 10 16 0.00 0.00
11:53 pm 23:53 Clear 41 5 25 -3.9 53 53 SSE 7 11 29.81 1009 10 16 0.00 0.00

Powered by AerisWeather